Flag for Poland Weather past 2 weeks in Szczecin, Poland

Now
63 °F

Light rain. Partly cloudy.


Feels Like: 63 °F
Forecast: 55 / 74 °F
Wind: 2 mph from South

Location: Szczecin Airport

Current Time: Aug 28, 2015 at 5:10:14 AM

Latest Report: Aug 28, 2015 at 4:30 AM


Visibility: 4 mi

Pressure: 29.83 "Hg

Humidity: 94%

Dew point: 61 °F

Location of SzczecinLocation

Historic Weather in Szczecin — Graph

°F

Szczecin temperature yesterday

Maximum temperature yesterday: 79 °F (at 12:30 PM)
Minimum temperature yesterday: 61 °F (at 2:30 AM)
Average temperature yesterday: 69 °F

Past Weeks' High & Low Weather Summary

 TemperatureHumidityPressure
High88 °F (Aug 14, 4:30 PM)100% (Aug 16, 1:00 AM)30.36 "Hg (Aug 16, 1:00 AM)
Low50 °F (Aug 22, 4:30 AM)23% (Aug 19, 5:30 PM)29.71 "Hg (Aug 15, 8:00 AM)
Average70 °F56%30.00 "Hg
* Reported Aug 13 4:00 AM — Aug 28 4:00 AM, Szczecin, Weather by CustomWeather, © 2015

Note: Actual official high and low records may vary slightly from our data, if they occured in-between our weather recording intervals... More about our weather records

Advertising

Szczecin weather history for previous 24 hours

 ConditionsComfort  
Time TempWeatherWind HumidityBarometerVisibility
4:00 AM
Fri, Aug 28
63 °FLight rain. Passing clouds.2 mph94%29.83 "Hg4 mi
3:30 AM63 °FLight rain. Passing clouds.2 mph94%29.83 "Hg4 mi
3:00 AM63 °FLight rain. Passing clouds.2 mph94%29.83 "Hg4 mi
2:30 AM63 °FLight rain. Passing clouds.No wind94%29.83 "Hg5 mi
2:00 AM63 °FLight rain. Clear.No wind94%29.83 "HgN/A
1:30 AM63 °FLight rain. Clear.2 mph94%29.83 "HgN/A
1:00 AM63 °FLight rain. Clear.5 mph94%29.83 "HgN/A
12:00 AM63 °FPassing clouds.3 mph94%29.86 "HgN/A
11:30 PM
Thu, Aug 27
64 °FLight rain. Clear.5 mph88%29.83 "HgN/A
11:00 PM64 °FLight rain. Clear.3 mph88%29.83 "HgN/A
10:30 PM64 °FLight rain. Clear.5 mph88%29.83 "HgN/A
10:00 PM66 °FLight rain. Clear.5 mph83%29.83 "HgN/A
9:30 PM66 °FLight rain. Clear.5 mph83%29.83 "HgN/A
9:00 PM66 °FLight rain. Clear.5 mph83%29.83 "HgN/A
8:30 PM68 °FSunny.3 mph78%29.83 "Hg10 mi
8:00 PM68 °FLight rain. Clear.3 mph78%29.83 "HgN/A
7:30 PM70 °FLight rain. Clear.3 mph69%29.86 "HgN/A
7:00 PM70 °FLight rain. Clear.2 mph69%29.83 "HgN/A
6:30 PM72 °FLight rain. Clear.5 mph65%29.86 "HgN/A
6:00 PM73 °FLight rain. Clear.3 mph57%29.86 "HgN/A
5:30 PM75 °FSunny.1 mph54%29.86 "Hg10 mi
5:00 PM75 °FSunny.2 mph50%29.86 "Hg10 mi
4:30 PM77 °FSunny.2 mph47%29.86 "Hg10 mi
4:00 PM77 °FSunny.3 mph47%29.86 "Hg10 mi
3:30 PM79 °FPassing clouds.6 mph42%29.86 "HgN/A
3:00 PM79 °FPassing clouds.6 mph42%29.86 "HgN/A
2:30 PM79 °FPassing clouds.7 mph42%29.86 "HgN/A
2:00 PM79 °FPassing clouds.8 mph39%29.86 "HgN/A
1:30 PM79 °FPassing clouds.10 mph37%29.86 "HgN/A
1:00 PM79 °FPassing clouds.9 mph39%29.86 "HgN/A
12:30 PM79 °FPassing clouds.10 mph34%29.86 "HgN/A
12:00 PM75 °FSunny.10 mph41%29.86 "Hg10 mi
11:30 AM73 °FPassing clouds.10 mph44%29.86 "HgN/A
11:00 AM73 °FSunny.12 mph41%29.86 "Hg10 mi
10:30 AM73 °FSunny.13 mph41%29.83 "Hg10 mi
10:00 AM72 °FSunny.12 mph47%29.86 "Hg10 mi
9:30 AM68 °FSunny.13 mph53%29.86 "Hg10 mi
9:00 AM68 °FSunny.13 mph53%29.86 "Hg10 mi
8:30 AM66 °FSunny.10 mph52%29.86 "Hg10 mi
8:00 AM66 °FPassing clouds.10 mph52%29.86 "HgN/A
7:30 AM64 °FSunny.12 mph56%29.86 "Hg10 mi
7:00 AM63 °FClear.10 mph59%29.86 "Hg10 mi
6:30 AM61 °FClear.10 mph68%29.86 "Hg10 mi
6:00 AM61 °FClear.9 mph68%29.86 "Hg10 mi
5:30 AM61 °FClear.13 mph68%29.86 "Hg10 mi
5:00 AM61 °FClear.8 mph72%29.89 "Hg10 mi
Weather by CustomWeather, © 2015

See weather overviewHow to use our weather pages